Weather History for KDIK - January, 2014

Change the Weather History Date:

Friday, January 17, 2014

  Actual Average Record
Temperature  
Mean Temperature 27 °F 16 °F  
Max Temperature 37 °F 26 °F 51 °F (1974)
Min Temperature 17 °F 6 °F -40 °F (1943)
Degree Days  
Heating Degree Days 38 49  
Month to date heating degree days 821 833  
Since 1 July heating degree days 4476 4370  
Cooling Degree Days 0 0  
Month to date cooling degree days 0 0  
Year to date cooling degree days 0 0  
Moisture  
Dew Point 22 °F    
Average Humidity 74    
Maximum Humidity 84    
Minimum Humidity 64    
Precipitation  
Precipitation 0.00 in 0.01 in 0.33 in (1996)
Month to date precipitation 0.02 0.18  
Year to date precipitation 0.02 0.18  
Sea Level Pressure  
Sea Level Pressure 29.93 in    
Wind  
Wind Speed 16 mph (West)    
Max Wind Speed 29 mph    
Max Gust Speed 35 mph    
Visibility 10 miles    
Events      
T = Trace of Precipitation, MM = Missing Value Source: NWS Daily Summary

Daily Weather History Graph

Daily Weather History Graph

Search for Another Location

Airport or City:

Trip Planner

Search our weather history database for the weather conditions in past years. The results will help you decide how hot, cold, wet, or windy it might be!

Date:

Astronomy

Jan. 17, 2014 Rise Set
Actual Time 7:30 AM MST 4:32 PM MST
Civil Twilight 6:56 AM MST 5:06 PM MST
Nautical Twilight 6:19 AM MST 5:44 PM MST
Astronomical Twilight 5:42 AM MST 6:20 PM MST
Moon 6:30 PM MST (1/17) 7:51 AM MST (1/17)
Length of Visible Light 10h 10m
Length of Day
9h 02m
Full, 98% of the Moon is Illuminated
Jan 17
Full
Jan 23
Last Quarter
Jan 30
New
Feb 6
First Quarter
Feb 14
Full

Hourly Weather History & Observations

Time (MST) Temp. Windchill Dew Point Humidity Pressure Visibility Wind Dir Wind Speed Gust Speed Precip Events Conditions
12:56 AM 17.1 °F 5.8 °F 12.9 °F 84% 30.18 in 10.0 mi West 9.2 mph - N/A   Clear
1:56 AM 18.0 °F 8.7 °F 12.9 °F 81% 30.15 in 10.0 mi WSW 6.9 mph - N/A   Clear
2:56 AM 19.9 °F 9.3 °F 15.1 °F 81% 30.14 in 10.0 mi WSW 9.2 mph - N/A   Clear
3:56 AM 21.9 °F 10.4 °F 15.1 °F 75% 30.12 in 10.0 mi West 11.5 mph - N/A   Clear
4:56 AM 23.0 °F 12.4 °F 17.1 °F 78% 30.08 in 10.0 mi West 10.4 mph - N/A   Mostly Cloudy
5:56 AM 23.0 °F 13.1 °F 16.0 °F 74% 30.09 in 10.0 mi West 9.2 mph - N/A   Mostly Cloudy
6:56 AM 21.9 °F 11.7 °F 16.0 °F 78% 30.04 in 10.0 mi WSW 9.2 mph - N/A   Mostly Cloudy
7:56 AM 24.1 °F 14.4 °F 16.0 °F 71% 30.01 in 10.0 mi West 9.2 mph - N/A   Partly Cloudy
8:56 AM 27.0 °F 17.3 °F 19.0 °F 72% 30.00 in 10.0 mi WSW 10.4 mph - N/A   Overcast
9:56 AM 28.9 °F 21.9 °F 19.9 °F 69% 29.98 in 10.0 mi WSW 6.9 mph - N/A   Overcast
12:56 PM 36.0 °F 24.4 °F 26.1 °F 67% 29.83 in 10.0 mi West 23.0 mph - N/A   Mostly Cloudy
1:56 PM 37.0 °F 26.4 °F 27.0 °F 67% 29.82 in 10.0 mi West 20.7 mph - N/A   Mostly Cloudy
2:56 PM 37.0 °F 29.3 °F 27.0 °F 67% 29.82 in 10.0 mi West 11.5 mph - N/A   Overcast
3:56 PM 37.0 °F 26.7 °F 27.0 °F 67% 29.80 in 10.0 mi West 19.6 mph - N/A   Partly Cloudy
4:56 PM 36.0 °F 24.7 °F 27.0 °F 70% 29.80 in 10.0 mi WNW 21.9 mph - N/A   Clear
5:56 PM 35.1 °F 24.1 °F 27.0 °F 72% 29.82 in 10.0 mi WNW 19.6 mph - N/A   Clear
6:56 PM 35.1 °F 24.8 °F 27.0 °F 72% 29.83 in 10.0 mi WNW 17.3 mph - N/A   Clear
7:56 PM 35.1 °F 23.3 °F 27.0 °F 72% 29.79 in 10.0 mi West 23.0 mph - N/A   Clear
8:56 PM 34.0 °F 21.8 °F 27.0 °F 75% 29.79 in 10.0 mi WNW 23.0 mph - N/A   Clear
9:56 PM 34.0 °F 21.3 °F 27.0 °F 75% 29.81 in 10.0 mi NW 25.3 mph 34.5 mph N/A   Clear
10:56 PM 34.0 °F 21.0 °F 27.0 °F 75% 29.81 in 10.0 mi WNW 26.5 mph 33.4 mph N/A   Overcast
11:56 PM 32.0 °F 18.1 °F 26.1 °F 79% 29.81 in 10.0 mi WNW 27.6 mph 33.4 mph N/A   Clear